PAY2089 KLAS-CYWG

Flight info

Callsign PAY2089
Flight time 2h 52m
Altitude 39000
Route GIDGT3 TUKRR DCT LAR DCT DPR DCT LITNA PEPNO5
Aircraft A346/H-SDE2E3FGHIJ3J4J5M1RWXY/LB1D1

Departure

Time 2026-05-06 16:48
Airport Harry Reid International Airport (KLAS)

Arrival

Time 2026-05-06 19:40
Airport Winnipeg / James Armstrong Richardson International Airport (CYWG)
Time Latitude Longitude Altitude Speed Heading
2026-05-06 16:36 36.08045 -115.13667 2085 ft 0 kts 46°
2026-05-06 16:40 36.08041 -115.13673 2086 ft 2 kts 52°
2026-05-06 16:40 36.08032 -115.13688 2087 ft 2 kts 52°
2026-05-06 16:41 36.08022 -115.13702 2087 ft 2 kts 47°
2026-05-06 16:41 36.08012 -115.13715 2088 ft 2 kts 45°
2026-05-06 16:41 36.08002 -115.13728 2088 ft 2 kts 46°
2026-05-06 16:41 36.07991 -115.13741 2088 ft 2 kts 47°
2026-05-06 16:42 36.07981 -115.13755 2089 ft 2 kts 47°
2026-05-06 16:42 36.07971 -115.13769 2089 ft 2 kts 62°
2026-05-06 16:42 36.07967 -115.13786 2090 ft 1 kts 91°
2026-05-06 16:42 36.07968 -115.13793 2090 ft 1 kts 96°
2026-05-06 16:43 36.07968 -115.13796 2090 ft 0 kts 96°
2026-05-06 16:44 36.07966 -115.13778 2090 ft 16 kts 96°
2026-05-06 16:44 36.07890 -115.13591 2086 ft 26 kts 130°
2026-05-06 16:45 36.07828 -115.13384 2081 ft 27 kts 86°
2026-05-06 16:45 36.07832 -115.13135 2075 ft 30 kts 91°
2026-05-06 16:45 36.07830 -115.12894 2071 ft 27 kts 90°
2026-05-06 16:45 36.07830 -115.12672 2067 ft 27 kts 90°
2026-05-06 16:46 36.07828 -115.12437 2064 ft 21 kts 91°
2026-05-06 16:46 36.07814 -115.12281 2062 ft 16 kts 124°
2026-05-06 16:46 36.07731 -115.12241 2062 ft 8 kts 172°
2026-05-06 16:46 36.07673 -115.12249 2062 ft 8 kts 215°
2026-05-06 16:47 36.07653 -115.12298 2063 ft 15 kts 258°
2026-05-06 16:47 36.07643 -115.12795 2070 ft 96 kts 270°
2026-05-06 16:47 36.07640 -115.13911 2098 ft 161 kts 270°
2026-05-06 16:47 36.07642 -115.15437 2380 ft 190 kts 270°
2026-05-06 16:48 36.07646 -115.17098 3012 ft 197 kts 270°
2026-05-06 16:48 36.07647 -115.18782 3806 ft 200 kts 270°
2026-05-06 16:48 36.07643 -115.20526 4372 ft 209 kts 271°
2026-05-06 16:48 36.07642 -115.22382 4804 ft 224 kts 271°
2026-05-06 16:49 36.07643 -115.24318 5437 ft 230 kts 271°
2026-05-06 16:49 36.07749 -115.26296 6011 ft 239 kts 290°
2026-05-06 16:49 36.08625 -115.28001 6793 ft 236 kts 322°
2026-05-06 16:49 36.10065 -115.28918 7463 ft 242 kts 348°
2026-05-06 16:50 36.11730 -115.29350 8251 ft 247 kts 349°
2026-05-06 16:50 36.13410 -115.29663 9093 ft 248 kts
2026-05-06 16:50 36.15049 -115.29131 9948 ft 248 kts 28°
2026-05-06 16:50 36.16000 -115.28302 10450 ft 254 kts 43°
2026-05-06 16:51 36.17369 -115.25789 11075 ft 282 kts 61°
2026-05-06 16:51 36.18173 -115.23463 11535 ft 302 kts 66°
2026-05-06 16:51 36.18911 -115.20953 11983 ft 323 kts 70°
2026-05-06 16:51 36.19441 -115.18172 12411 ft 344 kts 78°
2026-05-06 16:52 36.19655 -115.15157 12807 ft 366 kts 85°
2026-05-06 16:52 36.19671 -115.11905 13287 ft 383 kts 87°
2026-05-06 16:52 36.19654 -115.08610 14037 ft 389 kts 87°
2026-05-06 16:52 36.19637 -115.05238 14922 ft 392 kts 86°
2026-05-06 16:53 36.19626 -115.01891 15775 ft 394 kts 86°
2026-05-06 16:53 36.19619 -114.98492 16583 ft 398 kts 86°
2026-05-06 16:53 36.19613 -114.95093 17406 ft 400 kts 86°
2026-05-06 16:53 36.19609 -114.91670 18149 ft 404 kts 86°
2026-05-06 16:54 36.19606 -114.88182 18888 ft 408 kts 86°
2026-05-06 16:54 36.19604 -114.84697 19601 ft 411 kts 86°
2026-05-06 16:54 36.19600 -114.81147 20316 ft 415 kts 86°
2026-05-06 16:54 36.19593 -114.77594 21001 ft 418 kts 86°
2026-05-06 16:55 36.19587 -114.73955 21677 ft 422 kts 86°
2026-05-06 16:55 36.19576 -114.70330 22311 ft 426 kts 86°
2026-05-06 16:55 36.19568 -114.66632 22961 ft 430 kts 85°
2026-05-06 16:55 36.19559 -114.62964 23584 ft 433 kts 86°
2026-05-06 16:56 36.19550 -114.59212 24224 ft 437 kts 85°
2026-05-06 16:56 36.19541 -114.55487 24846 ft 440 kts 85°
2026-05-06 16:56 36.19529 -114.51691 25444 ft 443 kts 85°
2026-05-06 16:56 36.19516 -114.47878 26054 ft 445 kts 85°
2026-05-06 16:57 36.19504 -114.44031 26646 ft 448 kts 85°
2026-05-06 16:57 36.19491 -114.40221 27175 ft 451 kts 85°
2026-05-06 16:57 36.19474 -114.36316 27725 ft 454 kts 85°
2026-05-06 16:57 36.19455 -114.32398 28253 ft 457 kts 85°
2026-05-06 16:58 36.19453 -114.28506 28764 ft 459 kts 84°
2026-05-06 16:58 36.19581 -114.24579 29425 ft 456 kts 81°
2026-05-06 16:58 36.19859 -114.20682 30227 ft 449 kts 79°
2026-05-06 16:58 36.20260 -114.16945 31008 ft 443 kts 77°
2026-05-06 16:59 36.20701 -114.13197 31749 ft 439 kts 76°
2026-05-06 16:59 36.21144 -114.09470 32423 ft 436 kts 76°
2026-05-06 16:59 36.21584 -114.05773 33061 ft 433 kts 76°
2026-05-06 16:59 36.22018 -114.02132 33681 ft 431 kts 75°
2026-05-06 17:00 36.22454 -113.98459 34323 ft 428 kts 75°
2026-05-06 17:00 36.22884 -113.94858 34920 ft 425 kts 75°
2026-05-06 17:00 36.23315 -113.91255 35410 ft 425 kts 76°
2026-05-06 17:00 36.23742 -113.87659 35808 ft 427 kts 76°
2026-05-06 17:01 36.24173 -113.84018 36199 ft 428 kts 76°
2026-05-06 17:01 36.24600 -113.80365 36580 ft 428 kts 76°
2026-05-06 17:01 36.25026 -113.76720 36926 ft 430 kts 76°
2026-05-06 17:01 36.25447 -113.73096 37269 ft 430 kts 77°
2026-05-06 17:02 36.25876 -113.69414 37534 ft 433 kts 77°
2026-05-06 17:02 36.26306 -113.65702 37763 ft 436 kts 77°
2026-05-06 17:02 36.26728 -113.62031 38005 ft 438 kts 77°
2026-05-06 17:02 36.27158 -113.58286 38269 ft 439 kts 77°
2026-05-06 17:03 36.27589 -113.54527 38483 ft 441 kts 77°
2026-05-06 17:03 36.28014 -113.50806 38590 ft 443 kts 77°
2026-05-06 17:03 36.28447 -113.47024 38812 ft 445 kts 77°
2026-05-06 17:03 36.28879 -113.43231 39031 ft 446 kts 78°
2026-05-06 17:04 36.29309 -113.39439 39139 ft 449 kts 78°
2026-05-06 17:04 36.30185 -113.31758 39146 ft 451 kts 77°
2026-05-06 17:05 36.31469 -113.24155 39140 ft 449 kts 72°
2026-05-06 17:05 36.33322 -113.16827 39141 ft 446 kts 66°
2026-05-06 17:06 36.35684 -113.09752 39149 ft 445 kts 63°
2026-05-06 17:06 36.38144 -113.02766 39156 ft 444 kts 63°
2026-05-06 17:07 36.40606 -112.95761 39152 ft 445 kts 64°
2026-05-06 17:07 36.43085 -112.88690 39152 ft 446 kts 63°
2026-05-06 17:08 36.45550 -112.81642 39150 ft 449 kts 63°
2026-05-06 17:08 36.48039 -112.74508 39155 ft 451 kts 63°
2026-05-06 17:09 36.50518 -112.67384 39144 ft 452 kts 63°
2026-05-06 17:09 36.52989 -112.60265 39137 ft 452 kts 63°
2026-05-06 17:10 36.55494 -112.53037 39134 ft 455 kts 63°
2026-05-06 17:10 36.57974 -112.45858 39129 ft 456 kts 63°
2026-05-06 17:11 36.60486 -112.38574 39126 ft 458 kts 63°
2026-05-06 17:11 36.62985 -112.31306 39139 ft 460 kts 64°
2026-05-06 17:12 36.65504 -112.23964 39139 ft 460 kts 63°
2026-05-06 17:12 36.68000 -112.16666 39131 ft 461 kts 64°
2026-05-06 17:13 36.70504 -112.09337 39122 ft 462 kts 64°
2026-05-06 17:13 36.73011 -112.01977 39113 ft 462 kts 64°
2026-05-06 17:14 36.75502 -111.94642 39104 ft 463 kts 64°
2026-05-06 17:14 36.77997 -111.87272 39103 ft 462 kts 64°
2026-05-06 17:15 36.80498 -111.79878 39102 ft 463 kts 64°
2026-05-06 17:15 36.83185 -111.72666 39096 ft 461 kts 58°
2026-05-06 17:16 36.86530 -111.65851 39090 ft 459 kts 52°
2026-05-06 17:16 36.90442 -111.59646 39084 ft 456 kts 45°
2026-05-06 17:17 36.94840 -111.54028 39077 ft 453 kts 41°
2026-05-06 17:17 36.99381 -111.48542 39063 ft 453 kts 41°
2026-05-06 17:18 37.03874 -111.43109 39062 ft 453 kts 41°
2026-05-06 17:18 37.08397 -111.37623 39085 ft 451 kts 41°
2026-05-06 17:19 37.12942 -111.32099 39083 ft 452 kts 42°
2026-05-06 17:19 37.17427 -111.26637 39088 ft 450 kts 41°
2026-05-06 17:20 37.21892 -111.21197 39089 ft 450 kts 42°
2026-05-06 17:20 37.26391 -111.15703 39091 ft 450 kts 41°
2026-05-06 17:21 37.30856 -111.10233 39081 ft 449 kts 41°
2026-05-06 17:21 37.35326 -111.04755 39106 ft 449 kts 41°
2026-05-06 17:22 37.39777 -110.99286 39096 ft 449 kts 41°
2026-05-06 17:22 37.44240 -110.93792 39097 ft 447 kts 41°
2026-05-06 17:23 37.48659 -110.88349 39081 ft 446 kts 41°
2026-05-06 17:23 37.53089 -110.82883 39098 ft 446 kts 41°
2026-05-06 17:24 37.57504 -110.77418 39080 ft 446 kts 41°
2026-05-06 17:24 37.61934 -110.71931 39081 ft 449 kts 41°
2026-05-06 17:25 37.66378 -110.66412 39086 ft 448 kts 40°
2026-05-06 17:25 37.70819 -110.60895 39094 ft 448 kts 41°
2026-05-06 17:26 37.75236 -110.55394 39085 ft 447 kts 41°
2026-05-06 17:26 37.79668 -110.49863 39086 ft 446 kts 41°
2026-05-06 17:27 37.84065 -110.44365 39086 ft 449 kts 40°
2026-05-06 17:27 37.88490 -110.38824 39091 ft 450 kts 40°
2026-05-06 17:28 37.92949 -110.33229 39078 ft 449 kts 41°
2026-05-06 17:28 37.97361 -110.27688 39086 ft 448 kts 42°
2026-05-06 17:29 38.01765 -110.22144 39091 ft 447 kts 41°
2026-05-06 17:29 38.06159 -110.16602 39092 ft 448 kts 41°
2026-05-06 17:30 38.10568 -110.11028 39076 ft 448 kts 42°
2026-05-06 17:30 38.14983 -110.05437 39084 ft 448 kts 41°
2026-05-06 17:31 38.19403 -109.99834 39082 ft 450 kts 41°
2026-05-06 17:31 38.23811 -109.94231 39079 ft 450 kts 41°
2026-05-06 17:32 38.28240 -109.88590 39089 ft 451 kts 41°
2026-05-06 17:32 38.32679 -109.82935 39096 ft 451 kts 41°
2026-05-06 17:33 38.37120 -109.77261 39090 ft 454 kts 41°
2026-05-06 17:33 38.41554 -109.71582 39087 ft 455 kts 41°
2026-05-06 17:34 38.45994 -109.65891 39078 ft 455 kts 41°
2026-05-06 17:34 38.50473 -109.60137 39081 ft 456 kts 41°
2026-05-06 17:35 38.54914 -109.54423 39079 ft 457 kts 41°
2026-05-06 17:35 38.59378 -109.48670 39080 ft 458 kts 41°
2026-05-06 17:36 38.66098 -109.39984 39072 ft 458 kts 41°
2026-05-06 17:36 38.70558 -109.34205 39069 ft 459 kts 41°
2026-05-06 17:37 38.75059 -109.28361 39071 ft 459 kts 41°
2026-05-06 17:37 38.79525 -109.22554 39083 ft 458 kts 41°
2026-05-06 17:38 38.83993 -109.16737 39087 ft 459 kts 41°
2026-05-06 17:38 38.88457 -109.10912 39089 ft 458 kts 42°
2026-05-06 17:39 38.92928 -109.05068 39092 ft 461 kts 42°
2026-05-06 17:39 38.97374 -108.99236 39090 ft 458 kts 42°
2026-05-06 17:40 39.01819 -108.93399 39097 ft 459 kts 41°
2026-05-06 17:40 39.06290 -108.87514 39100 ft 460 kts 41°
2026-05-06 17:41 39.10763 -108.81624 39104 ft 459 kts 42°
2026-05-06 17:41 39.15196 -108.75770 39122 ft 460 kts 41°
2026-05-06 17:42 39.19655 -108.69868 39105 ft 461 kts 41°
2026-05-06 17:42 39.24124 -108.63943 39122 ft 461 kts 41°
2026-05-06 17:43 39.28585 -108.58019 39102 ft 462 kts 41°
2026-05-06 17:43 39.33054 -108.52073 39116 ft 461 kts 41°
2026-05-06 17:44 39.37523 -108.46117 39113 ft 461 kts 41°
2026-05-06 17:44 39.41959 -108.40185 39103 ft 462 kts 41°
2026-05-06 17:45 39.46431 -108.34202 39093 ft 463 kts 42°
2026-05-06 17:45 39.50904 -108.28200 39090 ft 462 kts 42°
2026-05-06 17:46 39.55339 -108.22239 39079 ft 462 kts 42°
2026-05-06 17:46 39.59809 -108.16223 39091 ft 463 kts 42°
2026-05-06 17:47 39.64263 -108.10211 39089 ft 463 kts 42°
2026-05-06 17:47 39.68733 -108.04172 39086 ft 464 kts 42°
2026-05-06 17:48 39.73164 -107.98169 39066 ft 463 kts 42°
2026-05-06 17:48 39.77643 -107.92092 39057 ft 464 kts 42°
2026-05-06 17:49 39.82103 -107.86025 39086 ft 465 kts 42°
2026-05-06 17:49 39.86556 -107.79954 39076 ft 465 kts 42°
2026-05-06 17:50 39.91014 -107.73866 39086 ft 465 kts 42°
2026-05-06 17:50 39.95467 -107.67776 39090 ft 465 kts 42°
2026-05-06 17:51 39.99896 -107.61704 39098 ft 465 kts 42°
2026-05-06 17:51 40.04365 -107.55563 39077 ft 466 kts 42°
2026-05-06 17:52 40.08811 -107.49447 39067 ft 466 kts 42°
2026-05-06 17:52 40.13278 -107.43284 39071 ft 467 kts 42°
2026-05-06 17:53 40.17724 -107.37144 39054 ft 468 kts 42°
2026-05-06 17:53 40.22206 -107.30930 39053 ft 468 kts 43°
2026-05-06 17:54 40.26650 -107.24763 39047 ft 468 kts 43°
2026-05-06 17:54 40.31107 -107.18569 39070 ft 469 kts 43°
2026-05-06 17:55 40.35595 -107.12315 39105 ft 469 kts 43°
2026-05-06 17:55 40.40048 -107.06094 39119 ft 469 kts 43°
2026-05-06 17:56 40.44503 -106.99860 39100 ft 471 kts 43°
2026-05-06 17:56 40.48959 -106.93609 39098 ft 470 kts 43°
2026-05-06 17:57 40.53421 -106.87341 39100 ft 469 kts 43°
2026-05-06 17:57 40.57855 -106.81097 39097 ft 470 kts 43°
2026-05-06 17:58 40.62301 -106.74822 39089 ft 470 kts 43°
2026-05-06 17:58 40.66750 -106.68533 39081 ft 470 kts 43°
2026-05-06 17:59 40.71184 -106.62249 39066 ft 471 kts 43°
2026-05-06 17:59 40.75637 -106.55924 39075 ft 469 kts 43°
2026-05-06 18:00 40.80061 -106.49631 39084 ft 470 kts 43°
2026-05-06 18:00 40.84481 -106.43323 39081 ft 471 kts 43°
2026-05-06 18:01 40.88911 -106.37000 39080 ft 471 kts 43°
2026-05-06 18:01 40.93367 -106.30615 39072 ft 471 kts 44°
2026-05-06 18:02 40.97839 -106.24200 39059 ft 473 kts 44°
2026-05-06 18:02 41.02249 -106.17853 39063 ft 472 kts 44°
2026-05-06 18:03 41.06711 -106.11426 39081 ft 474 kts 44°
2026-05-06 18:03 41.11153 -106.05003 39102 ft 474 kts 44°
2026-05-06 18:04 41.15579 -105.98605 39113 ft 474 kts 44°
2026-05-06 18:04 41.20042 -105.92130 39122 ft 475 kts 44°
2026-05-06 18:05 41.24485 -105.85664 39127 ft 474 kts 44°
2026-05-06 18:05 41.28928 -105.79193 39122 ft 474 kts 44°
2026-05-06 18:06 41.33522 -105.72940 39120 ft 471 kts 39°
2026-05-06 18:06 41.38547 -105.67354 39105 ft 468 kts 33°
2026-05-06 18:07 41.43757 -105.62161 39094 ft 467 kts 33°
2026-05-06 18:07 41.48970 -105.56994 39074 ft 468 kts 33°
2026-05-06 18:08 41.54151 -105.51837 39058 ft 467 kts 33°
2026-05-06 18:08 41.59318 -105.46682 39045 ft 466 kts 33°
2026-05-06 18:09 41.64265 -105.41728 39049 ft 465 kts 33°
2026-05-06 18:09 41.69418 -105.36560 39061 ft 464 kts 33°
2026-05-06 18:10 41.74605 -105.31349 39072 ft 465 kts 34°
2026-05-06 18:10 41.79779 -105.26141 39074 ft 466 kts 33°
2026-05-06 18:11 41.84083 -105.21800 39082 ft 467 kts 33°
2026-05-06 18:11 41.90138 -105.15679 39102 ft 466 kts 34°
2026-05-06 18:12 41.95287 -105.10459 39097 ft 464 kts 33°
2026-05-06 18:12 42.00423 -105.05244 39115 ft 464 kts 34°
2026-05-06 18:13 42.05561 -105.00017 39121 ft 464 kts 34°
2026-05-06 18:13 42.10705 -104.94772 39138 ft 465 kts 34°
2026-05-06 18:14 42.15871 -104.89490 39133 ft 464 kts 33°
2026-05-06 18:14 42.20969 -104.84274 39128 ft 463 kts 34°
2026-05-06 18:15 42.26124 -104.78987 39130 ft 464 kts 33°
2026-05-06 18:15 42.31260 -104.73707 39125 ft 465 kts 33°
2026-05-06 18:16 42.36389 -104.68417 39112 ft 464 kts 33°
2026-05-06 18:16 42.41503 -104.63138 39096 ft 464 kts 33°
2026-05-06 18:17 42.46618 -104.57847 39080 ft 464 kts 33°
2026-05-06 18:17 42.51725 -104.52550 39059 ft 462 kts 33°
2026-05-06 18:18 42.56856 -104.47222 39056 ft 464 kts 33°
2026-05-06 18:18 42.61957 -104.41906 39057 ft 464 kts 33°
2026-05-06 18:19 42.67070 -104.36573 39059 ft 464 kts 33°
2026-05-06 18:19 42.72214 -104.31194 39045 ft 464 kts 34°
2026-05-06 18:20 42.77346 -104.25818 39053 ft 465 kts 34°
2026-05-06 18:20 42.82442 -104.20463 39041 ft 465 kts 34°
2026-05-06 18:21 42.87541 -104.15099 39052 ft 465 kts 34°
2026-05-06 18:21 42.92621 -104.09739 39063 ft 464 kts 34°
2026-05-06 18:22 42.97732 -104.04337 39070 ft 464 kts 34°
2026-05-06 18:22 43.02823 -103.98945 39069 ft 465 kts 34°
2026-05-06 18:23 43.07941 -103.93508 39070 ft 465 kts 34°
2026-05-06 18:23 43.13058 -103.88069 39066 ft 465 kts 34°
2026-05-06 18:24 43.18138 -103.82647 39065 ft 465 kts 34°
2026-05-06 18:24 43.23219 -103.77221 39071 ft 465 kts 34°
2026-05-06 18:25 43.28312 -103.71771 39071 ft 466 kts 34°
2026-05-06 18:25 43.33400 -103.66305 39064 ft 465 kts 34°
2026-05-06 18:26 43.38508 -103.60812 39067 ft 466 kts 34°
2026-05-06 18:26 43.43566 -103.55360 39063 ft 465 kts 34°
2026-05-06 18:27 43.48668 -103.49852 39054 ft 466 kts 34°
2026-05-06 18:27 43.53762 -103.44335 39054 ft 465 kts 34°
2026-05-06 18:28 43.58826 -103.38837 39050 ft 464 kts 34°
2026-05-06 18:28 43.63927 -103.33295 39042 ft 467 kts 34°
2026-05-06 18:29 43.68991 -103.27775 39048 ft 467 kts 35°
2026-05-06 18:29 43.74079 -103.22221 39058 ft 467 kts 34°
2026-05-06 18:30 43.79161 -103.16659 39052 ft 465 kts 35°
2026-05-06 18:30 43.84214 -103.11117 39063 ft 466 kts 34°
2026-05-06 18:31 43.89315 -103.05508 39062 ft 466 kts 34°
2026-05-06 18:31 43.94377 -102.99933 39074 ft 467 kts 34°
2026-05-06 18:32 43.99433 -102.94346 39067 ft 466 kts 34°
2026-05-06 18:32 44.04517 -102.88725 39066 ft 466 kts 34°
2026-05-06 18:33 44.09568 -102.83119 39076 ft 467 kts 34°
2026-05-06 18:33 44.14662 -102.77450 39065 ft 466 kts 34°
2026-05-06 18:34 44.19704 -102.71833 39050 ft 466 kts 34°
2026-05-06 18:34 44.24755 -102.66190 39044 ft 467 kts 34°
2026-05-06 18:35 44.29846 -102.60489 39046 ft 467 kts 34°
2026-05-06 18:35 44.34902 -102.54816 39043 ft 468 kts 34°
2026-05-06 18:36 44.39942 -102.49149 39034 ft 468 kts 34°
2026-05-06 18:36 44.45027 -102.43415 39043 ft 468 kts 34°
2026-05-06 18:37 44.49243 -102.38654 39043 ft 468 kts 34°
2026-05-06 18:37 44.55131 -102.31986 39043 ft 468 kts 35°
2026-05-06 18:38 44.60197 -102.26234 39035 ft 468 kts 35°
2026-05-06 18:38 44.65233 -102.20503 39041 ft 468 kts 35°
2026-05-06 18:39 44.70293 -102.14730 39038 ft 469 kts 35°
2026-05-06 18:40 44.77861 -102.06074 39033 ft 469 kts 35°
2026-05-06 18:40 44.82917 -102.00275 39039 ft 469 kts 35°
2026-05-06 18:41 44.87956 -101.94479 39031 ft 469 kts 35°
2026-05-06 18:41 44.93018 -101.88649 39028 ft 469 kts 35°
2026-05-06 18:42 44.98062 -101.82822 39028 ft 470 kts 35°
2026-05-06 18:42 45.03103 -101.76987 39025 ft 469 kts 35°
2026-05-06 18:43 45.08157 -101.71166 39028 ft 469 kts 33°
2026-05-06 18:43 45.13335 -101.65585 39023 ft 470 kts 33°
2026-05-06 18:44 45.18539 -101.60024 39023 ft 469 kts 33°
2026-05-06 18:44 45.23727 -101.54458 39025 ft 469 kts 33°
2026-05-06 18:45 45.28921 -101.48869 39022 ft 469 kts 33°
2026-05-06 18:45 45.34121 -101.43262 39027 ft 469 kts 33°
2026-05-06 18:46 45.39288 -101.37670 39024 ft 468 kts 33°
2026-05-06 18:46 45.44496 -101.32024 39020 ft 469 kts 33°
2026-05-06 18:47 45.49658 -101.26411 39029 ft 470 kts 33°
2026-05-06 18:47 45.54834 -101.20776 39029 ft 471 kts 33°
2026-05-06 18:48 45.60054 -101.15076 39020 ft 470 kts 33°
2026-05-06 18:48 45.65235 -101.09405 39024 ft 471 kts 33°
2026-05-06 18:49 45.70415 -101.03722 39023 ft 471 kts 33°
2026-05-06 18:49 45.75585 -100.98037 39011 ft 470 kts 33°
2026-05-06 18:50 45.80783 -100.92306 39027 ft 471 kts 33°
2026-05-06 18:50 45.85956 -100.86588 39007 ft 471 kts 33°
2026-05-06 18:51 45.91137 -100.80846 39015 ft 471 kts 34°
2026-05-06 18:51 45.96293 -100.75120 39017 ft 471 kts 33°
2026-05-06 18:52 46.01471 -100.69358 39015 ft 472 kts 33°
2026-05-06 18:52 46.06672 -100.63554 39016 ft 472 kts 33°
2026-05-06 18:53 46.11861 -100.57749 39017 ft 472 kts 34°
2026-05-06 18:53 46.17041 -100.51942 39020 ft 472 kts 34°
2026-05-06 18:54 46.22218 -100.46118 39023 ft 472 kts 34°
2026-05-06 18:54 46.27363 -100.40321 39022 ft 473 kts 33°
2026-05-06 18:55 46.32547 -100.34463 39022 ft 473 kts 34°
2026-05-06 18:55 46.37759 -100.28562 39021 ft 474 kts 34°
2026-05-06 18:56 46.42930 -100.22694 39015 ft 474 kts 34°
2026-05-06 18:56 46.48139 -100.16763 39016 ft 473 kts 34°
2026-05-06 18:57 46.53309 -100.10867 39010 ft 474 kts 34°
2026-05-06 18:57 46.58457 -100.04976 39014 ft 475 kts 34°
2026-05-06 18:58 46.63650 -99.99021 39013 ft 475 kts 34°
2026-05-06 18:58 46.68832 -99.93064 39012 ft 475 kts 35°
2026-05-06 18:59 46.73980 -99.87129 39008 ft 475 kts 34°
2026-05-06 18:59 46.79160 -99.81146 39005 ft 475 kts 34°
2026-05-06 19:00 46.84330 -99.75160 39010 ft 475 kts 35°
2026-05-06 19:00 46.89484 -99.69173 39006 ft 475 kts 35°
2026-05-06 19:01 46.94667 -99.63139 38997 ft 476 kts 34°
2026-05-06 19:01 46.99818 -99.57127 38995 ft 476 kts 35°
2026-05-06 19:02 47.04966 -99.51104 38989 ft 476 kts 35°
2026-05-06 19:02 47.10151 -99.45022 38986 ft 476 kts 35°
2026-05-06 19:03 47.15310 -99.38954 38986 ft 476 kts 35°
2026-05-06 19:03 47.20478 -99.32861 38979 ft 476 kts 36°
2026-05-06 19:04 47.25646 -99.26751 38979 ft 477 kts 36°
2026-05-06 19:04 47.30815 -99.20625 38978 ft 477 kts 36°
2026-05-06 19:05 47.35979 -99.14487 38982 ft 477 kts 36°
2026-05-06 19:05 47.41105 -99.08380 38978 ft 477 kts 36°
2026-05-06 19:06 47.46268 -99.02215 38981 ft 478 kts 36°
2026-05-06 19:06 47.51423 -98.96040 38981 ft 478 kts 36°
2026-05-06 19:07 47.56572 -98.89860 38982 ft 478 kts 36°
2026-05-06 19:07 47.61701 -98.83684 38980 ft 478 kts 36°
2026-05-06 19:08 47.66867 -98.77447 38982 ft 478 kts 36°
2026-05-06 19:08 47.72006 -98.71227 38984 ft 479 kts 36°
2026-05-06 19:09 47.77162 -98.64971 38985 ft 479 kts 36°
2026-05-06 19:09 47.82310 -98.58709 38983 ft 479 kts 36°
2026-05-06 19:10 47.87430 -98.52464 38987 ft 479 kts 36°
2026-05-06 19:10 47.90019 -98.49297 38883 ft 480 kts 36°
2026-05-06 19:10 47.92582 -98.46162 38265 ft 482 kts 36°
2026-05-06 19:10 47.95169 -98.42992 37674 ft 481 kts 36°
2026-05-06 19:11 47.97712 -98.39871 37163 ft 480 kts 36°
2026-05-06 19:11 48.00315 -98.36671 36616 ft 480 kts 36°
2026-05-06 19:11 48.02891 -98.33500 36008 ft 480 kts 37°
2026-05-06 19:11 48.05470 -98.30321 35398 ft 480 kts 37°
2026-05-06 19:12 48.08009 -98.27187 34803 ft 479 kts 36°
2026-05-06 19:12 48.10584 -98.24005 34208 ft 477 kts 36°
2026-05-06 19:12 48.13136 -98.20848 33617 ft 476 kts 36°
2026-05-06 19:12 48.15665 -98.17717 33084 ft 477 kts 36°
2026-05-06 19:13 48.18219 -98.14554 32553 ft 478 kts 37°
2026-05-06 19:13 48.20773 -98.11384 31982 ft 476 kts 37°
2026-05-06 19:13 48.23297 -98.08243 30896 ft 477 kts 37°
2026-05-06 19:13 48.25816 -98.05109 29438 ft 478 kts 37°
2026-05-06 19:14 48.28371 -98.01926 28609 ft 476 kts 37°
2026-05-06 19:14 48.30902 -97.98764 27961 ft 469 kts 37°
2026-05-06 19:14 48.33384 -97.95658 27574 ft 461 kts 37°
2026-05-06 19:14 48.35840 -97.92583 27082 ft 458 kts 37°
2026-05-06 19:15 48.38248 -97.89563 26543 ft 454 kts 37°
2026-05-06 19:15 48.40649 -97.86549 26034 ft 450 kts 37°
2026-05-06 19:15 48.43049 -97.83533 25587 ft 444 kts 37°
2026-05-06 19:15 48.45398 -97.80576 25152 ft 437 kts 37°
2026-05-06 19:16 48.47682 -97.77697 24730 ft 430 kts 37°
2026-05-06 19:16 48.49965 -97.74817 24296 ft 424 kts 37°
2026-05-06 19:16 48.52210 -97.71982 23856 ft 417 kts 37°
2026-05-06 19:16 48.54408 -97.69205 23424 ft 411 kts 37°
2026-05-06 19:17 48.56569 -97.66471 22977 ft 406 kts 37°
2026-05-06 19:17 48.58723 -97.63741 22529 ft 401 kts 37°
2026-05-06 19:17 48.60834 -97.61063 22092 ft 396 kts 37°
2026-05-06 19:17 48.62943 -97.58386 21647 ft 392 kts 37°
2026-05-06 19:18 48.64995 -97.55777 21212 ft 387 kts 37°
2026-05-06 19:18 48.67056 -97.53154 20774 ft 383 kts 37°
2026-05-06 19:18 48.69060 -97.50600 20356 ft 378 kts 37°
2026-05-06 19:18 48.71063 -97.48045 19932 ft 371 kts 37°
2026-05-06 19:19 48.73022 -97.45541 19535 ft 367 kts 36°
2026-05-06 19:19 48.74929 -97.43103 19143 ft 362 kts 36°
2026-05-06 19:19 48.76851 -97.40646 18749 ft 358 kts 36°
2026-05-06 19:19 48.78727 -97.38245 18354 ft 354 kts 36°
2026-05-06 19:20 48.80601 -97.35844 17961 ft 351 kts 36°
2026-05-06 19:20 48.82460 -97.33459 17556 ft 348 kts 37°
2026-05-06 19:20 48.84317 -97.31073 17156 ft 344 kts 37°
2026-05-06 19:20 48.86112 -97.28766 16748 ft 342 kts 37°
2026-05-06 19:21 48.87926 -97.26427 16356 ft 339 kts 37°
2026-05-06 19:21 48.89710 -97.24130 15967 ft 336 kts 37°
2026-05-06 19:21 48.91481 -97.21847 15578 ft 333 kts 37°
2026-05-06 19:21 48.93227 -97.19593 15198 ft 330 kts 37°
2026-05-06 19:22 48.94984 -97.17325 14811 ft 327 kts 37°
2026-05-06 19:22 48.96707 -97.15101 14424 ft 325 kts 37°
2026-05-06 19:22 48.98418 -97.12887 14042 ft 323 kts 37°
2026-05-06 19:22 49.00111 -97.10694 13679 ft 320 kts 37°
2026-05-06 19:23 49.01801 -97.08502 13308 ft 317 kts 37°
2026-05-06 19:23 49.03467 -97.06338 12942 ft 314 kts 37°
2026-05-06 19:23 49.05125 -97.04181 12581 ft 311 kts 37°
2026-05-06 19:23 49.06782 -97.02179 12207 ft 305 kts 27°
2026-05-06 19:24 49.08706 -97.00946 11843 ft 297 kts 10°
2026-05-06 19:24 49.10724 -97.00622 11476 ft 290 kts 355°
2026-05-06 19:24 49.12723 -97.01014 11121 ft 285 kts 348°
2026-05-06 19:24 49.14681 -97.01518 10791 ft 280 kts 348°
2026-05-06 19:25 49.16531 -97.01999 10716 ft 264 kts 348°
2026-05-06 19:25 49.18314 -97.02460 10627 ft 254 kts 348°
2026-05-06 19:25 49.20010 -97.02898 10523 ft 244 kts 348°
2026-05-06 19:25 49.21642 -97.03317 10406 ft 233 kts 348°
2026-05-06 19:26 49.23215 -97.03716 10328 ft 223 kts 348°
2026-05-06 19:26 49.24734 -97.04103 10249 ft 221 kts 348°
2026-05-06 19:26 49.26241 -97.04487 10167 ft 221 kts 348°
2026-05-06 19:26 49.27772 -97.04875 10090 ft 221 kts 348°
2026-05-06 19:27 49.29286 -97.05260 10015 ft 221 kts 348°
2026-05-06 19:27 49.30804 -97.05646 9826 ft 222 kts 348°
2026-05-06 19:27 49.32334 -97.06033 9535 ft 221 kts 348°
2026-05-06 19:27 49.33833 -97.06413 9273 ft 219 kts 348°
2026-05-06 19:28 49.35343 -97.06796 9012 ft 218 kts 348°
2026-05-06 19:28 49.36824 -97.07170 8766 ft 217 kts 348°
2026-05-06 19:28 49.38319 -97.07549 8515 ft 217 kts 348°
2026-05-06 19:28 49.39810 -97.07928 8281 ft 216 kts 348°
2026-05-06 19:29 49.41273 -97.08305 8038 ft 215 kts 347°
2026-05-06 19:29 49.42747 -97.08759 7788 ft 215 kts 347°
2026-05-06 19:29 49.44216 -97.09226 7544 ft 214 kts 346°
2026-05-06 19:29 49.45675 -97.09696 7292 ft 214 kts 346°
2026-05-06 19:30 49.47115 -97.10159 7053 ft 213 kts 346°
2026-05-06 19:30 49.48564 -97.10626 6810 ft 212 kts 346°
2026-05-06 19:30 49.50022 -97.11095 6562 ft 212 kts 347°
2026-05-06 19:30 49.51471 -97.11559 6327 ft 211 kts 347°
2026-05-06 19:31 49.52902 -97.12020 6098 ft 211 kts 347°
2026-05-06 19:31 49.54329 -97.12476 5874 ft 211 kts 347°
2026-05-06 19:31 49.57197 -97.13427 5399 ft 208 kts 344°
2026-05-06 19:32 49.58554 -97.14116 5167 ft 206 kts 336°
2026-05-06 19:32 49.59835 -97.15054 4962 ft 199 kts 332°
2026-05-06 19:32 49.61026 -97.16044 4715 ft 194 kts 330°
2026-05-06 19:32 49.62170 -97.17011 4496 ft 181 kts 330°
2026-05-06 19:33 49.63238 -97.17911 4279 ft 168 kts 330°
2026-05-06 19:33 49.64243 -97.18764 4114 ft 165 kts 330°
2026-05-06 19:33 49.65251 -97.19619 3931 ft 164 kts 332°
2026-05-06 19:33 49.66249 -97.20456 3757 ft 163 kts 331°
2026-05-06 19:34 49.67255 -97.21304 3563 ft 163 kts 331°
2026-05-06 19:34 49.68245 -97.22136 3386 ft 163 kts 330°
2026-05-06 19:34 49.69239 -97.22982 3199 ft 162 kts 331°
2026-05-06 19:34 49.70216 -97.23809 3016 ft 161 kts 331°
2026-05-06 19:35 49.71175 -97.24620 2958 ft 149 kts 331°
2026-05-06 19:35 49.72069 -97.25378 2958 ft 146 kts 331°
2026-05-06 19:35 49.72954 -97.26128 2963 ft 145 kts 331°
2026-05-06 19:35 49.73845 -97.26884 2968 ft 144 kts 332°
2026-05-06 19:36 49.74777 -97.27351 2955 ft 142 kts 353°
2026-05-06 19:36 49.75760 -97.27320 2966 ft 141 kts
2026-05-06 19:36 49.76727 -97.27149 2970 ft 140 kts
2026-05-06 19:36 49.77698 -97.26934 2970 ft 140 kts
2026-05-06 19:37 49.78663 -97.26709 2964 ft 140 kts
2026-05-06 19:37 49.79623 -97.26480 2799 ft 139 kts
2026-05-06 19:37 49.80578 -97.26251 2607 ft 139 kts
2026-05-06 19:37 49.81214 -97.26102 2481 ft 138 kts
2026-05-06 19:38 49.82482 -97.25810 2232 ft 138 kts
2026-05-06 19:38 49.83430 -97.25593 2041 ft 138 kts
2026-05-06 19:38 49.84375 -97.25374 1847 ft 138 kts
2026-05-06 19:38 49.85322 -97.25155 1660 ft 137 kts
2026-05-06 19:39 49.86259 -97.24940 1478 ft 136 kts
2026-05-06 19:39 49.87201 -97.24721 1292 ft 136 kts
2026-05-06 19:39 49.88133 -97.24503 1100 ft 136 kts
2026-05-06 19:39 49.89067 -97.24278 906 ft 133 kts
2026-05-06 19:40 49.89968 -97.24071 782 ft 119 kts
2026-05-06 19:40 49.90453 -97.23974 784 ft 29 kts
2026-05-06 19:40 49.90637 -97.23930 785 ft 22 kts 11°
2026-05-06 19:40 49.90775 -97.23834 786 ft 22 kts 53°
2026-05-06 19:41 49.90821 -97.23635 785 ft 16 kts 78°
2026-05-06 19:41 49.90844 -97.23444 784 ft 19 kts 85°
2026-05-06 19:41 49.90868 -97.23229 783 ft 21 kts 83°
2026-05-06 19:41 49.90884 -97.22994 781 ft 18 kts 86°
2026-05-06 19:42 49.90860 -97.22804 779 ft 17 kts 126°
2026-05-06 19:42 49.90808 -97.22699 778 ft 12 kts 127°
2026-05-06 19:42 49.90766 -97.22567 777 ft 13 kts 95°
2026-05-06 19:42 49.90760 -97.22458 776 ft 8 kts 117°
2026-05-06 19:43 49.90721 -97.22417 776 ft 5 kts 169°
2026-05-06 19:43 49.90703 -97.22414 776 ft 0 kts 179°
2026-05-06 19:43 49.90697 -97.22414 776 ft 0 kts 178°
2026-05-06 19:43 49.90696 -97.22414 776 ft 0 kts 178°